| time (UTC) | temp F | wind direction | speed knots | gust knots | rain 1hr in | rain 24hr in | rain mn in | humidity % | barometer mb |
| 20260504214556 | 81 | 135 | 10.4 | 19.1 | 0.00 | 0.00 | 0.00 | 61 | 1007.0 |
| 20260504213515 | 81 | 135 | 9.6 | 19.1 | 0.00 | 0.00 | 0.00 | 61 | 1007.1 |
| 20260504212516 | 81 | 135 | 11.3 | 17.4 | 0.00 | 0.00 | 0.00 | 60 | 1007.3 |
| 20260504211535 | 81 | 135 | 12.2 | 23.5 | 0.00 | 0.00 | 0.00 | 60 | 1007.4 |
| 20260504210515 | 82 | 158 | 7.8 | 15.6 | 0.00 | 0.00 | 0.00 | 61 | 1007.6 |
| 20260504205535 | 82 | 135 | 10.4 | 18.2 | 0.00 | 0.00 | 0.00 | 59 | 1007.8 |
| 20260504204555 | 82 | 135 | 10.4 | 17.4 | 0.00 | 0.00 | 0.00 | 61 | 1007.9 |
| 20260504203515 | 82 | 135 | 10.4 | 19.1 | 0.00 | 0.00 | 0.00 | 60 | 1008.3 |
| 20260504202515 | 82 | 135 | 10.4 | 19.1 | 0.00 | 0.00 | 0.00 | 61 | 1008.4 |
| 20260504201515 | 82 | 158 | 7.0 | 19.1 | 0.00 | 0.00 | 0.00 | 59 | 1008.6 |
| 20260504200515 | 81 | 135 | 8.7 | 17.4 | 0.00 | 0.00 | 0.00 | 60 | 1008.7 |
| 20260504195516 | 81 | 135 | 10.4 | 16.5 | 0.00 | 0.00 | 0.00 | 62 | 1009.0 |
| 20260504194515 | 81 | 135 | 9.6 | 16.5 | 0.00 | 0.00 | 0.00 | 61 | 1009.3 |
| 20260504193516 | 81 | 135 | 8.7 | 15.6 | 0.00 | 0.00 | 0.00 | 61 | 1009.6 |
| 20260504192515 | 80 | 135 | 11.3 | 16.5 | 0.00 | 0.00 | 0.00 | 62 | 1009.6 |
| 20260504191515 | 80 | 135 | 11.3 | 15.6 | 0.00 | 0.00 | 0.00 | 63 | 1009.6 |
| 20260504190516 | 80 | 158 | 7.8 | 16.5 | 0.00 | 0.00 | 0.00 | 63 | 1009.8 |
| 20260504185535 | 80 | 135 | 9.6 | 15.6 | 0.00 | 0.00 | 0.00 | 64 | 1009.9 |
| 20260504184535 | 79 | 135 | 11.3 | 17.4 | 0.00 | 0.00 | 0.00 | 63 | 1010.1 |
| 20260504183516 | 79 | 158 | 8.7 | 18.2 | 0.00 | 0.00 | 0.00 | 63 | 1010.3 |
| 20260504182515 | 79 | 158 | 6.1 | 14.8 | 0.00 | 0.00 | 0.00 | 64 | 1010.4 |
| 20260504181655 | 78 | 135 | 9.6 | 16.5 | 0.00 | 0.00 | 0.00 | 64 | 1010.5 |
| 20260504180515 | 78 | 158 | 7.8 | 14.8 | 0.00 | 0.00 | 0.00 | 64 | 1010.8 |
| 20260504175515 | 78 | 158 | 7.8 | 15.6 | 0.00 | 0.00 | 0.00 | 63 | 1010.9 |
| 20260504174535 | 77 | 135 | 13.0 | 21.7 | 0.00 | 0.00 | 0.00 | 63 | 1010.9 |
| 20260504173535 | 77 | 158 | 7.8 | 18.2 | 0.00 | 0.00 | 0.00 | 65 | 1011.1 |
| 20260504172516 | 76 | 158 | 11.3 | 19.1 | 0.00 | 0.00 | 0.00 | 65 | 1011.0 |
| 20260504171537 | 76 | 135 | 10.4 | 18.2 | 0.00 | 0.00 | 0.00 | 65 | 1011.4 |
| 20260504170517 | 75 | 158 | 7.8 | 13.9 | 0.00 | 0.00 | 0.00 | 65 | 1011.5 |
| 20260504150517 | 69 | 158 | 8.7 | 20.9 | 0.00 | 0.00 | 0.00 | 74 | 1012.5 |
| 20260504140517 | 67 | 203 | 8.7 | 19.1 | 0.00 | 0.00 | 0.00 | 77 | 1012.4 |
| 20260504130537 | 64 | 203 | 8.7 | 16.5 | 0.00 | 0.00 | 0.00 | 81 | 1012.9 |
| 20260504110537 | 61 | 203 | 5.2 | 12.2 | 0.00 | 0.00 | 0.00 | 82 | 1012.8 |
| 20260504081016 | 61 | 203 | 5.2 | 8.7 | 0.00 | 0.00 | 0.00 | 76 | 1013.9 |
| 20260504050016 | 66 | 203 | 7.0 | 9.6 | 0.00 | 0.00 | 0.00 | 63 | 1015.6 |
| 20260504045016 | 66 | 203 | 7.0 | 11.3 | 0.00 | 0.00 | 0.00 | 63 | 1015.7 |
| 20260504044016 | 66 | 203 | 7.0 | 11.3 | 0.00 | 0.00 | 0.00 | 62 | 1015.8 |
| 20260504043016 | 67 | 203 | 6.1 | 11.3 | 0.00 | 0.00 | 0.00 | 61 | 1015.8 |
| 20260504042036 | 67 | 203 | 6.1 | 12.2 | 0.00 | 0.00 | 0.00 | 61 | 1016.0 |
| 20260504041016 | 67 | 203 | 7.0 | 12.2 | 0.00 | 0.00 | 0.00 | 61 | 1016.1 |
| 20260504040016 | 67 | 203 | 7.0 | 11.3 | 0.00 | 0.00 | 0.00 | 60 | 1016.0 |
| 20260504035016 | 67 | 203 | 7.0 | 10.4 | 0.00 | 0.00 | 0.00 | 59 | 1016.1 |
| 20260504034016 | 67 | 203 | 6.1 | 9.6 | 0.00 | 0.00 | 0.00 | 59 | 1016.0 |
| 20260504033016 | 67 | 203 | 7.0 | 10.4 | 0.00 | 0.00 | 0.00 | 58 | 1015.9 |
| 20260504032016 | 68 | 203 | 6.1 | 9.6 | 0.00 | 0.00 | 0.00 | 58 | 1015.9 |
| 20260504031016 | 68 | 203 | 6.1 | 10.4 | 0.00 | 0.00 | 0.00 | 58 | 1015.9 |
| 20260504030016 | 68 | 203 | 6.1 | 9.6 | 0.00 | 0.00 | 0.00 | 58 | 1015.6 |
| 20260504025016 | 68 | 203 | 5.2 | 7.8 | 0.00 | 0.00 | 0.00 | 58 | 1015.6 |
| 20260504024016 | 68 | 203 | 6.1 | 9.6 | 0.00 | 0.00 | 0.00 | 57 | 1015.6 |
| 20260504023016 | 68 | 203 | 6.1 | 7.8 | 0.00 | 0.00 | 0.00 | 56 | 1015.5 |
| 20260504022016 | 69 | 203 | 6.1 | 8.7 | 0.00 | 0.00 | 0.00 | 55 | 1015.5 |
| 20260504021016 | 69 | 203 | 6.1 | 8.7 | 0.00 | 0.00 | 0.00 | 54 | 1015.5 |
| 20260504020036 | 70 | 203 | 6.1 | 10.4 | 0.00 | 0.00 | 0.00 | 53 | 1015.4 |
| 20260504015016 | 70 | 203 | 6.1 | 8.7 | 0.00 | 0.00 | 0.00 | 51 | 1015.5 |
| 20260504014016 | 71 | 203 | 5.2 | 9.6 | 0.00 | 0.00 | 0.00 | 50 | 1015.5 |
| 20260504013036 | 71 | 203 | 6.1 | 10.4 | 0.00 | 0.00 | 0.00 | 49 | 1015.2 |
| 20260504012016 | 72 | 203 | 7.0 | 11.3 | 0.00 | 0.00 | 0.00 | 48 | 1015.0 |
| 20260504011016 | 72 | 203 | 7.8 | 11.3 | 0.00 | 0.00 | 0.00 | 46 | 1015.0 |
| 20260504010016 | 73 | 203 | 7.8 | 11.3 | 0.00 | 0.00 | 0.00 | 45 | 1015.0 |
| 20260504005036 | 74 | 203 | 6.1 | 9.6 | 0.00 | 0.00 | 0.00 | 45 | 1015.0 |
| 20260504004056 | 74 | 203 | 7.8 | 12.2 | 0.00 | 0.00 | 0.00 | 44 | 1015.0 |
| 20260504003016 | 75 | 203 | 7.0 | 11.3 | 0.00 | 0.00 | 0.00 | 43 | 1015.1 |
| 20260504002016 | 75 | 203 | 8.7 | 14.8 | 0.00 | 0.00 | 0.00 | 42 | 1015.0 |
| 20260504001016 | 76 | 203 | 7.8 | 12.2 | 0.00 | 0.00 | 0.00 | 42 | 1015.2 |
| 20260504000016 | 77 | 203 | 6.1 | 12.2 | 0.00 | 0.00 | 0.00 | 41 | 1015.3 |
| 20260503235036 | 77 | 203 | 7.8 | 13.0 | 0.00 | 0.00 | 0.00 | 40 | 1015.3 |
| 20260503234016 | 77 | 203 | 7.8 | 17.4 | 0.00 | 0.00 | 0.00 | 40 | 1015.4 |
| 20260503233016 | 78 | 203 | 7.8 | 13.0 | 0.00 | 0.00 | 0.00 | 38 | 1015.4 |
| 20260503232036 | 78 | 203 | 7.8 | 12.2 | 0.00 | 0.00 | 0.00 | 39 | 1015.5 |
| 20260503231016 | 78 | 203 | 6.1 | 12.2 | 0.00 | 0.00 | 0.00 | 40 | 1015.7 |
| 20260503230016 | 78 | 180 | 8.7 | 13.0 | 0.00 | 0.00 | 0.00 | 40 | 1015.7 |
| 20260503225036 | 79 | 203 | 7.0 | 13.9 | 0.00 | 0.00 | 0.00 | 38 | 1015.9 |
| 20260503224016 | 79 | 203 | 7.0 | 13.0 | 0.00 | 0.00 | 0.00 | 38 | 1015.8 |
| 20260503223016 | 79 | 203 | 8.7 | 15.6 | 0.00 | 0.00 | 0.00 | 36 | 1015.9 |
| 20260503222036 | 79 | 203 | 7.8 | 14.8 | 0.00 | 0.00 | 0.00 | 37 | 1016.0 |
| 20260503221016 | 79 | 203 | 7.0 | 12.2 | 0.00 | 0.00 | 0.00 | 39 | 1016.0 |
| 20260503220016 | 79 | 225 | 5.2 | 13.0 | 0.00 | 0.00 | 0.00 | 37 | 1016.2 |